NOAA 16 DEB

Satellite information

Favourite Embed

Satellite Type and Status

DEBRISIN ORBIT

Key statistics

Satellite NOAA 16 DEB at a glance.

Uptime

8993

Days in orbit

Revolutions

≈ 14.2

Per day

Orbit

SSO

Sun Synchronous Orbit

Inclination

98.7

Latest

Satellite identification and parameters

Extended collection of information and parameters for NOAA 16 DEB.

Object identification

Identified? True

Debris? True

Object name: NOAA 16 DEB

International designator: 2000-055Z

Object number (NORAD): 41066

Object ID (CCSDS): 41066

Country: UNITED STATES OF AMERICA (US)

Current information (Y/N): Y

RCS size: SMALL

Orbital parameters

Period: 101.399 minutes

Inclination: 98.688 deg

SMA: 7203.043 km

Apoapsis: 835.902 km

Periapsis: 813.914 km

RAAN: 207.3462 deg

Eccentricy: 0.0015263

Argument of periapsis: 3.6264 deg

Mean anomaly: 356.502 deg

Mean motion: 14.20132059 rev/day

Mean motion (dot): 0.00001442 rev/day2

B* drag term: 0.00069564 1/REarth

Two-line elements (TLE)

Creation date: May 6, 2025, 3:54 a.m.

Reference frame: TEME

Reference center: EARTH

Epoch: May 5, 2025, 10:59 a.m. UTC

TLE line 0: 0 NOAA 16 DEB

TLE line 1: 1 41066U 00055Z 25125.45791545 .00001442 00000-0 69564-3 0 9996

TLE line 2: 2 41066 98.6880 207.3462 0015263 3.6264 356.5020 14.20132059488143

Live tracking on map

Real-time ground track for satellite NOAA 16 DEB.

In-orbit conjunctions

A list of the most updated potential collisions computed for object NOAA 16 DEB.

Target Orbit TCA Probability of collision Miss distance Type
SL-16 R/B LEO 2024-12-01 18:18:36 0.0001601185 429.0 (m) ROCKET BODY
THOR BURNER 2 R/B SSO 2024-09-08 08:42:42 0.0001326306 737.0 (m) ROCKET BODY

Associated space launch

The NOAA K, L and M POES satellites begin the fifth generation of improved environmental monitoring in support of NOAA missions. The instrument payload has significant improvements and additions/deletions. The instrument changes have effected the spacecraft subsystems and data formats.

NOAA 16 DEB was lifted into orbit during the mission ‘Titan II SLV | NOAA 16’, on board a Titan II SLV space rocket.

The launch took place on Sept. 21, 2000, 10:22 a.m. from Space Launch Complex 4W.

For more information about the launch, click the button.

Launch to space Titan II SLV | NOAA 16
Titan II SLV | NOAA 16

Agency: N/A

Status: Launch Successful

Launch date: Sept. 21, 2000, 10:22 a.m. UTC

Rocket: Titan II SLV

Launch pad: Space Launch Complex 4W

Location: Vandenberg SFB, CA, USA

...

Latest news about this satellite

There are no fresh news available about this satellite. Check back as we update our databases every day.


Newsletter sign-up

Weekly statistics, charts and insights to help you stay on top of the space industry.